Time,TemperatureF,DewpointF,PressureIn,WindDirection,WindDirectionDegrees,WindSpeedMPH,WindSpeedGustMPH,Humidity,HourlyPrecipIn,Conditions,Clouds,dailyrainin,SoftwareType,DateUTC
2013-01-31 00:01:00,44.0,39.0,30.02,West,273,3.0,10.0,84,0.00,,,0.31,,2013-01-31 00:01:00,
2013-01-31 00:11:00,44.0,39.0,30.02,West,273,3.0,10.0,84,0.00,,,0.31,,2013-01-31 00:11:00,
2013-01-31 00:21:00,44.0,39.0,30.02,West,273,3.0,10.0,84,0.00,,,0.31,,2013-01-31 00:21:00,
2013-01-31 00:31:00,44.0,39.0,30.03,West,270,4.0,11.0,84,0.00,,,0.31,,2013-01-31 00:31:00,
2013-01-31 00:42:00,44.0,39.0,30.03,West,270,4.0,11.0,84,0.00,,,0.31,,2013-01-31 00:42:00,
2013-01-31 00:53:00,45.0,40.0,30.01,West,264,2.0,9.0,84,0.00,,,0.29,,2013-01-31 00:53:00,
2013-01-31 01:01:00,45.0,40.0,30.01,West,264,2.0,9.0,84,0.00,,,0.29,,2013-01-31 01:01:00,
2013-01-31 01:11:00,45.0,40.0,30.01,West,264,2.0,9.0,84,0.00,,,0.29,,2013-01-31 01:11:00,
2013-01-31 01:21:00,45.0,40.0,30.02,West,270,3.0,9.0,83,0.00,,,0.27,,2013-01-31 01:21:00,
2013-01-31 01:31:00,44.0,39.0,30.00,West,266,3.0,8.0,83,0.00,,,0.25,,2013-01-31 01:31:00,
2013-01-31 01:41:00,44.0,39.0,30.00,West,266,3.0,8.0,83,0.00,,,0.25,,2013-01-31 01:41:00,
2013-01-31 01:52:00,44.0,39.0,30.00,West,266,3.0,8.0,83,0.00,,,0.25,,2013-01-31 01:52:00,
2013-01-31 02:01:00,44.0,39.0,30.00,West,266,3.0,8.0,83,0.00,,,0.25,,2013-01-31 02:01:00,
2013-01-31 02:11:00,44.0,39.0,30.00,West,266,3.0,8.0,83,0.00,,,0.25,,2013-01-31 02:11:00,
2013-01-31 02:21:00,44.0,39.0,29.98,West,268,1.0,7.0,84,0.00,,,0.23,,2013-01-31 02:21:00,
2013-01-31 02:32:00,44.0,39.0,29.98,West,268,1.0,7.0,84,0.00,,,0.23,,2013-01-31 02:32:00,
2013-01-31 02:41:00,44.0,39.0,29.98,West,268,1.0,7.0,84,0.00,,,0.23,,2013-01-31 02:41:00,
2013-01-31 02:51:00,44.0,39.0,29.98,West,268,1.0,7.0,84,0.00,,,0.23,,2013-01-31 02:51:00,
2013-01-31 03:02:00,44.0,40.0,29.97,WNW,289,1.0,6.0,87,0.00,,,0.21,,2013-01-31 03:02:00,
2013-01-31 03:11:00,44.0,40.0,29.97,WNW,289,1.0,6.0,87,0.00,,,0.21,,2013-01-31 03:11:00,
2013-01-31 03:21:00,44.0,41.0,29.93,West,270,2.0,9.0,88,0.00,,,0.20,,2013-01-31 03:21:00,
2013-01-31 03:32:00,44.0,41.0,29.92,West,270,2.0,7.0,89,0.00,,,0.12,,2013-01-31 03:32:00,
2013-01-31 03:41:00,44.0,41.0,29.92,West,270,2.0,7.0,89,0.00,,,0.12,,2013-01-31 03:41:00,
2013-01-31 03:51:00,44.0,41.0,29.92,West,270,2.0,7.0,89,0.00,,,0.12,,2013-01-31 03:51:00,
2013-01-31 04:02:00,45.0,42.0,29.90,WNW,287,2.0,8.0,89,0.00,,,0.09,,2013-01-31 04:02:00,
2013-01-31 04:11:00,45.0,42.0,29.90,WNW,287,2.0,8.0,89,0.00,,,0.09,,2013-01-31 04:11:00,
2013-01-31 04:22:00,46.0,43.0,29.85,ENE,57,2.0,6.0,88,0.00,,,0.08,,2013-01-31 04:22:00,
2013-01-31 04:31:00,46.0,43.0,29.85,ENE,57,2.0,6.0,88,0.00,,,0.08,,2013-01-31 04:31:00,
2013-01-31 04:41:00,46.0,43.0,29.85,ENE,57,2.0,6.0,88,0.00,,,0.08,,2013-01-31 04:41:00,
2013-01-31 04:52:00,47.0,43.0,29.86,NW,308,2.0,10.0,86,0.00,,,0.07,,2013-01-31 04:52:00,
2013-01-31 05:11:00,47.0,43.0,29.85,NNW,339,3.0,11.0,85,0.00,,,0.03,,2013-01-31 05:11:00,
2013-01-31 05:21:00,47.0,43.0,29.85,NNW,339,3.0,11.0,85,0.00,,,0.03,,2013-01-31 05:21:00,
2013-01-31 05:31:00,47.0,43.0,29.85,NNW,339,3.0,11.0,85,0.00,,,0.03,,2013-01-31 05:31:00,
2013-01-31 05:41:00,47.0,43.0,29.85,NNW,339,3.0,11.0,85,0.00,,,0.03,,2013-01-31 05:41:00,
2013-01-31 14:02:00,50.0,41.0,29.85,WNW,295,6.0,16.0,71,0.00,,,0.06,,2013-01-31 14:02:00,
2013-01-31 14:11:00,50.0,41.0,29.85,WNW,295,6.0,16.0,71,0.00,,,0.06,,2013-01-31 14:11:00,
2013-01-31 14:21:00,50.0,41.0,29.85,WNW,295,6.0,16.0,71,0.00,,,0.06,,2013-01-31 14:21:00,
2013-01-31 14:31:00,50.0,41.0,29.85,WNW,292,5.0,15.0,72,0.00,,,0.06,,2013-01-31 14:31:00,
2013-01-31 14:41:00,50.0,41.0,29.85,WNW,292,5.0,15.0,72,0.00,,,0.06,,2013-01-31 14:41:00,
2013-01-31 14:52:00,50.0,41.0,29.85,WNW,292,5.0,15.0,72,0.00,,,0.06,,2013-01-31 14:52:00,
2013-01-31 15:02:00,50.0,41.0,29.85,WNW,292,5.0,15.0,72,0.00,,,0.06,,2013-01-31 15:02:00,
2013-01-31 15:11:00,50.0,40.0,29.86,WNW,296,5.0,11.0,68,0.00,,,0.06,,2013-01-31 15:11:00,
2013-01-31 15:22:00,50.0,40.0,29.86,WNW,296,5.0,11.0,68,0.00,,,0.06,,2013-01-31 15:22:00,
2013-01-31 15:32:00,50.0,39.0,29.86,WNW,291,6.0,15.0,67,0.00,,,0.06,,2013-01-31 15:32:00,
2013-01-31 15:42:00,50.0,39.0,29.86,WNW,291,6.0,15.0,67,0.00,,,0.06,,2013-01-31 15:42:00,
2013-01-31 15:51:00,50.0,39.0,29.86,WNW,291,6.0,15.0,67,0.00,,,0.06,,2013-01-31 15:51:00,
2013-01-31 16:03:00,50.0,39.0,29.86,WNW,291,6.0,15.0,67,0.00,,,0.06,,2013-01-31 16:03:00,
2013-01-31 16:11:00,50.0,39.0,29.86,WNW,291,6.0,15.0,67,0.00,,,0.06,,2013-01-31 16:11:00,
2013-01-31 17:22:00,49.0,40.0,29.88,WNW,295,4.0,10.0,71,0.00,,,0.06,,2013-01-31 17:22:00,
2013-01-31 17:32:00,48.0,39.0,29.88,WNW,295,4.0,12.0,72,0.00,,,0.06,,2013-01-31 17:32:00,
2013-01-31 17:43:00,48.0,39.0,29.88,WNW,295,4.0,12.0,72,0.00,,,0.06,,2013-01-31 17:43:00,
2013-01-31 17:53:00,48.0,39.0,29.88,WNW,295,4.0,12.0,72,0.00,,,0.06,,2013-01-31 17:53:00,
2013-01-31 18:02:00,48.0,39.0,29.88,WNW,295,4.0,12.0,72,0.00,,,0.06,,2013-01-31 18:02:00,
2013-01-31 18:11:00,48.0,39.0,29.88,WNW,293,4.0,15.0,72,0.00,,,0.06,,2013-01-31 18:11:00,
2013-01-31 18:21:00,48.0,39.0,29.88,WNW,293,4.0,15.0,72,0.00,,,0.06,,2013-01-31 18:21:00,
2013-01-31 18:32:00,48.0,39.0,29.88,WNW,300,4.0,12.0,72,0.00,,,0.06,,2013-01-31 18:32:00,
2013-01-31 18:40:00,48.0,40.0,29.89,WNW,298,4.0,10.0,73,0.00,,,0.06,,2013-01-31 18:40:00,
2013-01-31 18:42:00,48.0,39.0,29.88,WNW,300,4.0,12.0,72,0.00,,,0.06,,2013-01-31 18:42:00,
2013-01-31 18:52:00,48.0,39.0,29.88,WNW,300,4.0,12.0,72,0.00,,,0.06,,2013-01-31 18:52:00,
2013-01-31 19:01:00,48.0,40.0,29.89,WNW,298,4.0,10.0,73,0.00,,,0.06,,2013-01-31 19:01:00,
2013-01-31 19:11:00,48.0,40.0,29.89,WNW,298,4.0,10.0,73,0.00,,,0.06,,2013-01-31 19:11:00,
2013-01-31 19:21:00,48.0,40.0,29.89,WNW,298,4.0,10.0,73,0.00,,,0.06,,2013-01-31 19:21:00,
2013-01-31 19:32:00,48.0,40.0,29.89,WNW,298,4.0,10.0,73,0.00,,,0.06,,2013-01-31 19:32:00,
2013-01-31 19:52:00,47.0,39.0,29.90,WNW,292,4.0,10.0,75,0.00,,,0.06,,2013-01-31 19:52:00,
2013-01-31 20:02:00,47.0,40.0,29.89,West,264,2.0,6.0,76,0.00,,,0.06,,2013-01-31 20:02:00,
2013-01-31 20:11:00,47.0,40.0,29.89,West,262,3.0,7.0,77,0.00,,,0.06,,2013-01-31 20:11:00,
2013-01-31 20:21:00,47.0,40.0,29.89,West,262,3.0,7.0,77,0.00,,,0.06,,2013-01-31 20:21:00,
2013-01-31 20:31:00,47.0,40.0,29.89,West,262,3.0,7.0,77,0.00,,,0.06,,2013-01-31 20:31:00,
2013-01-31 20:41:00,47.0,40.0,29.89,West,262,3.0,7.0,77,0.00,,,0.06,,2013-01-31 20:41:00,
2013-01-31 20:52:00,47.0,40.0,29.89,West,262,3.0,7.0,77,0.00,,,0.06,,2013-01-31 20:52:00,
2013-01-31 21:01:00,47.0,41.0,29.90,West,272,3.0,10.0,79,0.00,,,0.06,,2013-01-31 21:01:00,
2013-01-31 21:12:00,47.0,41.0,29.90,West,272,3.0,10.0,79,0.00,,,0.06,,2013-01-31 21:12:00,
2013-01-31 21:21:00,47.0,41.0,29.90,West,272,3.0,10.0,79,0.00,,,0.06,,2013-01-31 21:21:00,
2013-01-31 21:31:00,47.0,41.0,29.90,West,272,3.0,10.0,79,0.00,,,0.06,,2013-01-31 21:31:00,
2013-01-31 21:42:00,47.0,41.0,29.90,West,272,3.0,10.0,79,0.00,,,0.06,,2013-01-31 21:42:00,
2013-01-31 21:52:00,47.0,41.0,29.89,West,264,2.0,7.0,80,0.00,,,0.06,,2013-01-31 21:52:00,
2013-01-31 22:02:00,46.0,40.0,29.88,West,266,3.0,10.0,80,0.00,,,0.06,,2013-01-31 22:02:00,
2013-01-31 22:11:00,46.0,40.0,29.88,West,266,3.0,10.0,80,0.00,,,0.06,,2013-01-31 22:11:00,
2013-01-31 22:21:00,46.0,40.0,29.88,West,266,3.0,10.0,80,0.00,,,0.06,,2013-01-31 22:21:00,
2013-01-31 22:32:00,46.0,40.0,29.88,West,266,3.0,10.0,80,0.00,,,0.06,,2013-01-31 22:32:00,
2013-01-31 22:42:00,46.0,40.0,29.88,West,266,3.0,10.0,80,0.00,,,0.06,,2013-01-31 22:42:00,
2013-01-31 22:52:00,46.0,41.0,29.86,West,268,3.0,9.0,81,0.00,,,0.06,,2013-01-31 22:52:00,
2013-01-31 23:02:00,46.0,41.0,29.86,West,268,3.0,9.0,81,0.00,,,0.06,,2013-01-31 23:02:00,
2013-01-31 23:12:00,46.0,41.0,29.85,West,274,3.0,11.0,81,0.00,,,0.06,,2013-01-31 23:12:00,
2013-01-31 23:21:00,46.0,41.0,29.85,West,274,3.0,11.0,81,0.00,,,0.06,,2013-01-31 23:21:00,
2013-01-31 23:31:00,46.0,41.0,29.84,WNW,282,3.0,10.0,81,0.00,,,0.06,,2013-01-31 23:31:00,
2013-01-31 23:41:00,46.0,41.0,29.84,WNW,282,3.0,10.0,81,0.00,,,0.06,,2013-01-31 23:41:00,
2013-01-31 23:52:00,46.0,41.0,29.84,WNW,282,3.0,10.0,81,0.00,,,0.06,,2013-01-31 23:52:00,